Regional Weather Roundup
Issued by NWS

Home | Current Version | Previous Version | Graphics & Text | Print | Product List | Glossary On
Versions: 1 2 3 4 5 6 7 8 9 10 11 12 13 14 15 16 17 18 19 20 21 22 23 24 25 26 27 28 29 30 31 32 33 34 35 36 37 38 39 40 41 42 43 44 45 46 47 48 49 50
000
ASUS44 KMEG 230800
RWRTN
TENNESSEE HOURLY STATE WEATHER ROUNDUP
NATIONAL WEATHER SERVICE MEMPHIS TN
300 AM CDT SAT SEP 23 2017

TNZ002-004-019-021-049-052-054-088>092-230900-
WEST TENNESSEE

CITY           SKY/WX    TMP DP  RH WIND       PRES   REMARKS
MEMPHIS INTL   CLEAR     75  68  78 E3        29.97F
NWS MEMPHIS      N/A     70 N/A N/A MISG        N/A
JACKSON        FOG       67  67 100 CALM      29.99F VSB 1/2
DYERSBURG      CLEAR     69  68  96 CALM      30.00F
$$

TNZ008-025-027-028-033-062-065-066-230900-
NORTH MIDDLE TENNESSEE

CITY           SKY/WX    TMP DP  RH WIND       PRES   REMARKS
NASHVILLE      CLEAR     71  68  90 CALM      30.02F
CLARKSVILLE    CLEAR     67  65  93 CALM      30.02S
SMYRNA           N/A    N/A N/A N/A MISG        N/A
CROSSVILLE     PTCLDY    63  62  97 CALM      30.09S FOG
$$

TNZ061-075-076-078-094-096-097-230900-
SOUTH MIDDLE TENNESSEE

CITY           SKY/WX    TMP DP  RH WIND       PRES   REMARKS
MCMINNVILLE    CLOUDY    66  66 100 CALM      30.04S VSB 1/2
$$

TNZ017-018-042-046-047-230900-
NORTHEAST TENNESSEE

CITY           SKY/WX    TMP DP  RH WIND       PRES   REMARKS
TRI CITIES     CLOUDY    64  62  93 CALM      30.09S
$$

TNZ012-013-036-069-073-074-230900-
CENTRAL EAST TENNESSEE

CITY           SKY/WX    TMP DP  RH WIND       PRES   REMARKS
KNOXVILLE      PTCLDY    67  64  90 CALM      30.04S
OAK RIDGE      PTCLDY    68  65  90 E3        30.06S
GATLINBURG     CLEAR     63  61  94 CALM      30.05S
$$

TNZ083-085-099-230900-
SOUTHEAST TENNESSEE

CITY           SKY/WX    TMP DP  RH WIND       PRES   REMARKS
CHATTANOOGA    CLEAR     70  67  90 CALM      30.04R
$$

SKY/WX REPORTED AS FAIR MEANS FEW OR NO CLOUDS BELOW
12 THOUSAND FEET.





USA.gov is the U.S. government's official web portal to all federal, state and local government web resources and services.